TURKSAT 3A

Last updated on Fri Sep 11 2026 00:02:56 GMT+0000 (Coordinated Universal Time)

1 33056U 08030B 26253.52054956 .00000127 00000+0 00000+0 0 9990 2 33056 0.0429 83.7940 0004475 71.4120 63.7247 1.00271547 53217
UTC large
Height (km)
Speed (km/s)
/
Latitude / Longitude
Inclination (degrees)
Orbital Period (minutes)
Azimuth
Elevation
Range (km)
Doppler Factor

Next 0 passes for location: London (51.5072 / 0.1276)

No passes found over London.
TURKSAT 3A